Morristown, NJ

12:49 AM EDT on July 26, 2017 (GMT -0400)
Morristown Municipal

Weather History for KMMU - June, 2013

Change the Weather History Date:

Monday, June 17, 2013

  Actual Average Record
Temperature  
Mean Temperature 73 °F -  
Max Temperature 84 °F 82 °F 96 °F (1957)
Min Temperature 62 °F 59 °F 40 °F (1954)
Cooling Degree Days 8    
Growing Degree Days 23 (Base 50)    
Moisture  
Dew Point 63 °F    
Average Humidity 80    
Maximum Humidity 100    
Minimum Humidity 48    
Precipitation  
Precipitation 0.03 in - - ()
Sea Level Pressure  
Sea Level Pressure 29.89 in    
Wind  
Wind Speed 2 mph (WSW)    
Max Wind Speed 17 mph    
Max Gust Speed 25 mph    
Visibility 8 miles    
Events Rain , Thunderstorm    
Averages and records for this station are not official NWS values.
T = Trace of Precipitation, MM = Missing Value Source: NWS Daily Summary

Daily Weather History Graph

Daily Weather History Graph

Search for Another Location

Airport or City:

Trip Planner

Search our weather history database for the weather conditions in past years. The results will help you decide how hot, cold, wet, or windy it might be!

Date:

Astronomy

Jun. 17, 2013 Rise Set
Actual Time 5:25 AM EDT 8:31 PM EDT
Civil Twilight 4:52 AM EDT 9:05 PM EDT
Nautical Twilight 4:09 AM EDT 9:47 PM EDT
Astronomical Twilight 3:19 AM EDT 10:38 PM EDT
Moon 2:05 PM EDT (6/17) 1:02 AM EDT (6/17)
Length of Visible Light 16h 12m
Length of Day
15h 05m
First Quarter, 60% of the Moon is Illuminated
Jun 17
First Quarter
Jun 23
Full
Jun 30
Last Quarter
Jul 8
New
Jul 15
First Quarter

Hourly Weather History & Observations

Time (EDT) Temp. Heat Index Dew Point Humidity Pressure Visibility Wind Dir Wind Speed Gust Speed Precip Events Conditions
12:15 AM 68.0 °F - 62.6 °F 83% 29.87 in 10.0 mi Calm Calm - N/A   Clear
12:35 AM 68.0 °F - 64.4 °F 88% 29.87 in 10.0 mi Calm Calm - N/A   Clear
12:55 AM 66.2 °F - 62.6 °F 88% 29.87 in 10.0 mi Calm Calm - N/A   Clear
1:15 AM 66.2 °F - 62.6 °F 88% 29.87 in 10.0 mi Calm Calm - N/A   Clear
1:35 AM 66.2 °F - 62.6 °F 88% 29.87 in 10.0 mi Calm Calm - 0.01 in   Clear
1:55 AM 64.4 °F - 62.6 °F 94% 29.87 in 5.0 mi Calm Calm - N/A   Clear
2:15 AM 64.4 °F - 60.8 °F 88% 29.87 in 10.0 mi Calm Calm - N/A   Clear
2:35 AM 64.4 °F - 60.8 °F 88% 29.87 in 10.0 mi Calm Calm - N/A   Clear
2:55 AM 64.4 °F - 60.8 °F 88% 29.87 in 7.0 mi Calm Calm - N/A   Clear
3:15 AM 64.4 °F - 60.8 °F 88% 29.88 in 7.0 mi Calm Calm - N/A   Clear
3:35 AM 64.4 °F - 60.8 °F 88% 29.88 in 7.0 mi Calm Calm - N/A   Clear
3:55 AM 62.6 °F - 60.8 °F 94% 29.89 in 10.0 mi Calm Calm - N/A   Clear
4:15 AM 62.6 °F - 60.8 °F 94% 29.89 in 4.0 mi Calm Calm - 0.01 in   Clear
4:35 AM 62.6 °F - 60.8 °F 94% 29.89 in 7.0 mi Calm Calm - 0.01 in   Clear
4:55 AM 62.6 °F - 60.8 °F 94% 29.89 in 4.0 mi Calm Calm - N/A   Clear
5:15 AM 64.4 °F - 60.8 °F 88% 29.89 in 7.0 mi Calm Calm - N/A   Clear
5:35 AM 64.4 °F - 60.8 °F 88% 29.90 in 7.0 mi Calm Calm - N/A   Clear
5:55 AM 64.4 °F - 60.8 °F 88% 29.90 in 2.5 mi Calm Calm - N/A   Clear
6:15 AM 64.4 °F - 60.8 °F 88% 29.90 in 5.0 mi Calm Calm - N/A   Scattered Clouds
6:35 AM 64.4 °F - 62.6 °F 94% 29.91 in 7.0 mi Calm Calm - N/A   Mostly Cloudy
6:45 AM 62.6 °F - 62.6 °F 100% 29.91 in 10.0 mi Calm Calm - N/A   Mostly Cloudy
7:45 AM 68.0 °F - 64.4 °F 88% 29.92 in 10.0 mi SSW 5.8 mph - N/A   Mostly Cloudy
8:45 AM 73.4 °F - 66.2 °F 78% 29.92 in 10.0 mi WNW 5.8 mph - N/A   Scattered Clouds
9:45 AM 77.0 °F - 66.2 °F 69% 29.91 in 10.0 mi NW 5.8 mph - N/A   Partly Cloudy
10:45 AM 80.6 °F 82.3 °F 64.4 °F 58% 29.98 in 10.0 mi West 5.8 mph - N/A   Scattered Clouds
11:45 AM 82.4 °F 83.9 °F 64.4 °F 54% 29.89 in 10.0 mi WSW 8.1 mph - N/A   Scattered Clouds
12:45 PM 84.2 °F 85.0 °F 62.6 °F 48% 29.88 in 10.0 mi SSW 8.1 mph 18.4 mph N/A   Scattered Clouds
1:45 PM 84.2 °F 85.0 °F 62.6 °F 48% 29.87 in 10.0 mi WSW 13.8 mph 20.7 mph N/A   Scattered Clouds
2:30 PM 80.6 °F 81.8 °F 62.6 °F 54% 29.87 in 5.0 mi West 15.0 mph 21.9 mph N/A Rain Rain
2:45 PM 71.6 °F - 64.4 °F 78% 29.89 in 3.0 mi West 17.3 mph 25.3 mph N/A Rain , Thunderstorm Light Thunderstorms and Rain
3:20 PM 75.2 °F - 68.0 °F 78% 29.87 in 10.0 mi West 6.9 mph - N/A Thunderstorm Thunderstorm
3:45 PM 77.0 °F - 68.0 °F 74% 29.87 in 10.0 mi West 9.2 mph - N/A   Mostly Cloudy
4:45 PM 80.6 °F 83.2 °F 68.0 °F 65% 29.85 in 10.0 mi WSW 8.1 mph - N/A   Scattered Clouds
5:45 PM 82.4 °F 83.9 °F 64.4 °F 54% 29.85 in 10.0 mi SW 8.1 mph - N/A   Partly Cloudy
6:45 PM 82.4 °F 83.9 °F 64.4 °F 54% 29.85 in 10.0 mi WSW 8.1 mph - N/A   Scattered Clouds
7:45 PM 78.8 °F - 66.2 °F 65% 29.87 in 10.0 mi West 5.8 mph - N/A   Overcast
8:45 PM 73.4 °F - 66.2 °F 78% 29.88 in 10.0 mi WNW 3.5 mph - N/A   Overcast
9:45 PM 69.8 °F - 64.4 °F 83% 29.89 in 10.0 mi Calm Calm - N/A   Mostly Cloudy
10:55 PM 69.8 °F - 64.4 °F 83% 29.90 in 10.0 mi Calm Calm - N/A   Clear
11:15 PM 69.8 °F - 64.4 °F 83% 29.90 in 10.0 mi Calm Calm - 0.01 in   Clear
11:35 PM 68.0 °F - 62.6 °F 83% 29.90 in 10.0 mi Calm Calm - 0.01 in   Clear
11:55 PM 68.0 °F - 64.4 °F 88% 29.90 in 7.0 mi Calm Calm - N/A   Clear